AXIOM-1

Last updated on Tue Apr 26 2022 00:02:03 GMT+0000 (Coordinated Universal Time)

1 52204U 22037A 22115.62070112 .00216535 27337-4 41814-3 0 9996 2 52204 51.6411 236.8056 0131607 165.4093 195.0768 15.86008991 2633

Satellite not in orbit

AXIOM-1